Time,TemperatureF,DewpointF,PressureIn,WindDirection,WindDirectionDegrees,WindSpeedMPH,WindSpeedGustMPH,Humidity,HourlyPrecipIn,Conditions,Clouds,dailyrainin,SolarRadiationWatts/m^2,SoftwareType,DateUTC
2013-10-20 00:01:00,57.3,48.7,29.75,SW,215,0.0,-999.0,73,0.00,,,0.00,0,org.tom.weather,2013-10-20 04:01:00,
2013-10-20 00:06:00,57.4,48.8,29.75,SW,217,3.0,-999.0,73,0.00,,,0.00,0,org.tom.weather,2013-10-20 04:06:00,
2013-10-20 00:11:00,57.5,48.9,29.74,SW,215,2.0,-999.0,73,0.00,,,0.00,0,org.tom.weather,2013-10-20 04:11:00,
2013-10-20 00:16:00,57.5,48.9,29.74,SW,215,0.0,-999.0,73,0.00,,,0.00,0,org.tom.weather,2013-10-20 04:16:00,
2013-10-20 00:21:00,57.5,48.9,29.73,SW,215,2.0,-999.0,73,0.00,,,0.00,0,org.tom.weather,2013-10-20 04:21:00,
2013-10-20 00:26:00,57.4,49.2,29.73,SW,224,2.0,-999.0,74,0.00,,,0.00,0,org.tom.weather,2013-10-20 04:26:00,
2013-10-20 00:31:00,57.4,49.5,29.73,SSW,205,0.0,-999.0,75,0.00,,,0.00,0,org.tom.weather,2013-10-20 04:31:00,
2013-10-20 00:36:00,57.3,49.8,29.72,WSW,239,3.0,-999.0,76,0.00,,,0.00,0,org.tom.weather,2013-10-20 04:36:00,
2013-10-20 00:41:00,57.3,50.1,29.72,SSW,200,0.0,-999.0,77,0.00,,,0.00,0,org.tom.weather,2013-10-20 04:41:00,
2013-10-20 00:46:00,57.3,50.5,29.72,South,184,0.0,-999.0,78,0.00,,,0.00,0,org.tom.weather,2013-10-20 04:46:00,
2013-10-20 00:51:00,57.2,50.4,29.72,SW,219,0.0,-999.0,78,0.00,,,0.00,0,org.tom.weather,2013-10-20 04:51:00,
2013-10-20 00:56:00,57.2,50.7,29.72,SSW,192,2.0,-999.0,79,0.00,,,0.00,0,org.tom.weather,2013-10-20 04:56:00,
2013-10-20 01:01:00,57.2,51.1,29.72,SSW,197,0.0,-999.0,80,0.00,,,0.00,0,org.tom.weather,2013-10-20 05:01:00,
2013-10-20 01:06:00,57.1,51.0,29.72,SSW,209,2.0,-999.0,80,0.00,,,0.00,0,org.tom.weather,2013-10-20 05:06:00,
2013-10-20 01:11:00,57.1,51.0,29.72,SSW,209,0.0,-999.0,80,0.00,,,0.00,0,org.tom.weather,2013-10-20 05:11:00,
2013-10-20 01:16:00,57.1,51.3,29.72,SSW,212,0.0,-999.0,81,0.00,,,0.00,0,org.tom.weather,2013-10-20 05:16:00,
2013-10-20 01:23:00,57.0,51.5,29.71,South,188,0.0,-999.0,82,0.00,,,0.00,0,org.tom.weather,2013-10-20 05:23:00,
2013-10-20 01:28:00,56.9,51.4,29.71,SW,223,0.0,-999.0,82,0.00,,,0.00,0,org.tom.weather,2013-10-20 05:28:00,
2013-10-20 01:33:00,56.9,51.4,29.71,SW,224,0.0,-999.0,82,0.00,,,0.00,0,org.tom.weather,2013-10-20 05:33:00,
2013-10-20 01:38:00,56.8,51.7,29.71,SW,223,0.0,-999.0,83,0.00,,,0.00,0,org.tom.weather,2013-10-20 05:38:00,
2013-10-20 01:43:00,56.8,51.7,29.71,SW,215,2.0,-999.0,83,0.00,,,0.00,0,org.tom.weather,2013-10-20 05:43:00,
2013-10-20 01:48:00,56.7,51.6,29.71,SW,216,2.0,-999.0,83,0.00,,,0.00,0,org.tom.weather,2013-10-20 05:48:00,
2013-10-20 01:53:00,56.7,51.6,29.71,SSW,202,4.0,-999.0,83,0.00,,,0.00,0,org.tom.weather,2013-10-20 05:53:00,
2013-10-20 01:58:00,56.7,51.9,29.71,SSW,211,1.0,-999.0,84,0.00,,,0.00,0,org.tom.weather,2013-10-20 05:58:00,
2013-10-20 02:03:00,56.6,51.8,29.70,SSW,211,0.0,-999.0,84,0.00,,,0.00,0,org.tom.weather,2013-10-20 06:03:00,
2013-10-20 02:08:00,56.5,52.0,29.70,SSW,211,0.0,-999.0,85,0.00,,,0.00,0,org.tom.weather,2013-10-20 06:08:00,
2013-10-20 02:13:00,56.2,52.0,29.70,SSW,211,0.0,-999.0,86,0.00,,,0.00,0,org.tom.weather,2013-10-20 06:13:00,
2013-10-20 02:18:00,56.0,52.2,29.70,SSW,211,0.0,-999.0,87,0.00,,,0.00,0,org.tom.weather,2013-10-20 06:18:00,
2013-10-20 02:23:00,55.8,52.3,29.69,SSW,211,0.0,-999.0,88,0.00,,,0.00,0,org.tom.weather,2013-10-20 06:23:00,
2013-10-20 02:28:00,55.6,52.1,29.69,SSW,211,0.0,-999.0,88,0.00,,,0.00,0,org.tom.weather,2013-10-20 06:28:00,
2013-10-20 02:33:00,55.5,52.0,29.69,SSW,211,0.0,-999.0,88,0.00,,,0.00,0,org.tom.weather,2013-10-20 06:33:00,
2013-10-20 02:38:00,55.4,53.1,29.69,SSW,211,0.0,-999.0,92,0.00,,,0.00,0,org.tom.weather,2013-10-20 06:38:00,
2013-10-20 02:43:00,55.2,52.3,29.69,SSW,211,0.0,-999.0,90,0.00,,,0.00,0,org.tom.weather,2013-10-20 06:43:00,
2013-10-20 02:48:00,55.0,52.1,29.69,SSW,211,0.0,-999.0,90,0.00,,,0.00,0,org.tom.weather,2013-10-20 06:48:00,
2013-10-20 02:53:00,54.9,52.3,29.69,SSW,211,0.0,-999.0,91,0.00,,,0.00,0,org.tom.weather,2013-10-20 06:53:00,
2013-10-20 02:58:00,54.8,52.2,29.68,SSW,211,0.0,-999.0,91,0.00,,,0.00,0,org.tom.weather,2013-10-20 06:58:00,
2013-10-20 03:03:00,54.7,52.1,29.68,SSW,211,0.0,-999.0,91,0.00,,,0.00,0,org.tom.weather,2013-10-20 07:03:00,
2013-10-20 03:08:00,54.7,52.1,29.68,SSW,211,0.0,-999.0,91,0.00,,,0.00,0,org.tom.weather,2013-10-20 07:08:00,
2013-10-20 03:13:00,54.7,52.4,29.68,SW,217,0.0,-999.0,92,0.00,,,0.00,0,org.tom.weather,2013-10-20 07:13:00,
2013-10-20 03:18:00,54.8,52.5,29.68,SW,217,0.0,-999.0,92,0.00,,,0.00,0,org.tom.weather,2013-10-20 07:18:00,
2013-10-20 03:23:00,54.9,52.6,29.68,SW,215,0.0,-999.0,92,0.00,,,0.00,0,org.tom.weather,2013-10-20 07:23:00,
2013-10-20 03:28:00,55.0,52.4,29.68,SW,215,0.0,-999.0,91,0.00,,,0.00,0,org.tom.weather,2013-10-20 07:28:00,
2013-10-20 03:33:00,55.0,52.4,29.68,SW,215,0.0,-999.0,91,0.00,,,0.00,0,org.tom.weather,2013-10-20 07:33:00,
2013-10-20 03:38:00,55.0,52.4,29.68,SW,215,0.0,-999.0,91,0.00,,,0.00,0,org.tom.weather,2013-10-20 07:38:00,
2013-10-20 03:43:00,54.9,52.3,29.67,SW,215,0.0,-999.0,91,0.00,,,0.00,0,org.tom.weather,2013-10-20 07:43:00,
2013-10-20 03:48:00,54.8,52.5,29.67,SW,215,0.0,-999.0,92,0.00,,,0.00,0,org.tom.weather,2013-10-20 07:48:00,
2013-10-20 03:54:00,54.6,52.3,29.67,SW,215,0.0,-999.0,92,0.00,,,0.00,0,org.tom.weather,2013-10-20 07:54:00,
2013-10-20 03:59:00,54.5,52.2,29.67,SW,215,0.0,-999.0,92,0.00,,,0.00,0,org.tom.weather,2013-10-20 07:59:00,
2013-10-20 04:04:00,54.5,52.2,29.68,SW,215,0.0,-999.0,92,0.00,,,0.00,0,org.tom.weather,2013-10-20 08:04:00,
2013-10-20 04:09:00,54.6,52.3,29.68,SW,215,0.0,-999.0,92,0.00,,,0.00,0,org.tom.weather,2013-10-20 08:09:00,
2013-10-20 04:14:00,54.4,52.1,29.68,SW,215,0.0,-999.0,92,0.00,,,0.00,0,org.tom.weather,2013-10-20 08:14:00,
2013-10-20 04:19:00,54.2,51.9,29.68,SW,215,0.0,-999.0,92,0.00,,,0.00,0,org.tom.weather,2013-10-20 08:19:00,
2013-10-20 04:24:00,54.0,51.7,29.68,SW,215,0.0,-999.0,92,0.00,,,0.00,0,org.tom.weather,2013-10-20 08:24:00,
2013-10-20 04:29:00,53.9,51.6,29.68,SW,215,0.0,-999.0,92,0.00,,,0.00,0,org.tom.weather,2013-10-20 08:29:00,
2013-10-20 04:34:00,53.6,51.3,29.68,SW,215,0.0,-999.0,92,0.00,,,0.00,0,org.tom.weather,2013-10-20 08:34:00,
2013-10-20 04:39:00,53.3,51.0,29.68,SW,215,0.0,-999.0,92,0.00,,,0.00,0,org.tom.weather,2013-10-20 08:39:00,
2013-10-20 04:44:00,53.1,51.1,29.68,SW,215,0.0,-999.0,93,0.00,,,0.00,0,org.tom.weather,2013-10-20 08:44:00,
2013-10-20 04:49:00,52.9,50.9,29.69,SW,215,0.0,-999.0,93,0.00,,,0.00,0,org.tom.weather,2013-10-20 08:49:00,
2013-10-20 04:54:00,52.8,50.8,29.69,SW,215,0.0,-999.0,93,0.00,,,0.00,0,org.tom.weather,2013-10-20 08:54:00,
2013-10-20 04:59:00,52.7,51.0,29.69,SW,215,0.0,-999.0,94,0.00,,,0.00,0,org.tom.weather,2013-10-20 08:59:00,
2013-10-20 05:04:00,52.6,50.9,29.69,SW,215,0.0,-999.0,94,0.00,,,0.00,0,org.tom.weather,2013-10-20 09:04:00,
2013-10-20 05:09:00,52.7,51.0,29.69,SW,221,0.0,-999.0,94,0.00,,,0.00,0,org.tom.weather,2013-10-20 09:09:00,
2013-10-20 05:14:00,52.9,51.2,29.69,SW,220,0.0,-999.0,94,0.00,,,0.00,0,org.tom.weather,2013-10-20 09:14:00,
2013-10-20 05:19:00,53.0,51.3,29.69,SW,234,0.0,-999.0,94,0.00,,,0.00,0,org.tom.weather,2013-10-20 09:19:00,
2013-10-20 05:24:00,53.0,51.3,29.69,SW,233,0.0,-999.0,94,0.00,,,0.00,0,org.tom.weather,2013-10-20 09:24:00,
2013-10-20 05:32:00,52.9,51.2,29.69,SW,225,0.0,-999.0,94,0.00,,,0.00,0,org.tom.weather,2013-10-20 09:32:00,
2013-10-20 05:37:00,52.7,51.0,29.69,SW,225,0.0,-999.0,94,0.00,,,0.00,0,org.tom.weather,2013-10-20 09:37:00,
2013-10-20 05:42:00,52.6,50.9,29.69,SW,225,0.0,-999.0,94,0.00,,,0.00,0,org.tom.weather,2013-10-20 09:42:00,
2013-10-20 05:47:00,52.4,50.7,29.69,SW,225,1.0,-999.0,94,0.00,,,0.00,0,org.tom.weather,2013-10-20 09:47:00,
2013-10-20 05:52:00,52.3,50.6,29.69,SW,226,0.0,-999.0,94,0.00,,,0.00,0,org.tom.weather,2013-10-20 09:52:00,
2013-10-20 05:57:00,52.1,50.4,29.70,SW,226,0.0,-999.0,94,0.00,,,0.00,0,org.tom.weather,2013-10-20 09:57:00,
2013-10-20 06:02:00,52.0,50.3,29.70,SW,226,0.0,-999.0,94,0.00,,,0.00,0,org.tom.weather,2013-10-20 10:02:00,
2013-10-20 06:07:00,51.9,50.2,29.70,SW,226,0.0,-999.0,94,0.00,,,0.00,0,org.tom.weather,2013-10-20 10:07:00,
2013-10-20 06:12:00,51.8,50.1,29.70,SW,226,0.0,-999.0,94,0.00,,,0.00,0,org.tom.weather,2013-10-20 10:12:00,
2013-10-20 06:17:00,51.7,50.0,29.70,SW,226,1.0,-999.0,94,0.00,,,0.00,0,org.tom.weather,2013-10-20 10:17:00,
2013-10-20 06:22:00,51.6,49.9,29.70,SW,226,0.0,-999.0,94,0.00,,,0.00,0,org.tom.weather,2013-10-20 10:22:00,
2013-10-20 06:27:00,51.6,49.9,29.70,West,272,0.0,-999.0,94,0.00,,,0.00,0,org.tom.weather,2013-10-20 10:27:00,
2013-10-20 06:32:00,51.6,49.9,29.70,West,268,0.0,-999.0,94,0.00,,,0.00,0,org.tom.weather,2013-10-20 10:32:00,
2013-10-20 06:37:00,51.7,50.0,29.70,WSW,250,0.0,-999.0,94,0.00,,,0.00,0,org.tom.weather,2013-10-20 10:37:00,
2013-10-20 06:42:00,51.7,50.0,29.70,NW,313,0.0,-999.0,94,0.00,,,0.00,0,org.tom.weather,2013-10-20 10:42:00,
2013-10-20 06:47:00,51.7,50.0,29.71,NW,311,0.0,-999.0,94,0.00,,,0.00,0,org.tom.weather,2013-10-20 10:47:00,
2013-10-20 06:52:00,51.7,50.0,29.71,WNW,290,0.0,-999.0,94,0.00,,,0.00,0,org.tom.weather,2013-10-20 10:52:00,
2013-10-20 06:57:00,51.7,50.0,29.71,West,272,0.0,-999.0,94,0.00,,,0.00,0,org.tom.weather,2013-10-20 10:57:00,
2013-10-20 07:02:00,51.6,49.9,29.71,SSW,206,0.0,-999.0,94,0.00,,,0.00,0,org.tom.weather,2013-10-20 11:02:00,
2013-10-20 07:07:00,51.4,49.1,29.72,NW,319,1.0,-999.0,92,0.00,,,0.00,0,org.tom.weather,2013-10-20 11:07:00,
2013-10-20 07:12:00,51.4,48.5,29.72,NW,311,1.0,-999.0,90,0.00,,,0.00,7,org.tom.weather,2013-10-20 11:12:00,
2013-10-20 07:17:00,51.4,47.9,29.72,WNW,295,0.0,-999.0,88,0.00,,,0.00,9,org.tom.weather,2013-10-20 11:17:00,
2013-10-20 07:22:00,51.3,47.5,29.73,West,269,0.0,-999.0,87,0.00,,,0.00,9,org.tom.weather,2013-10-20 11:22:00,
2013-10-20 07:27:00,51.2,46.8,29.73,NNW,340,2.0,-999.0,85,0.00,,,0.00,11,org.tom.weather,2013-10-20 11:27:00,
2013-10-20 07:32:00,51.2,46.5,29.73,NNE,15,5.0,-999.0,84,0.00,,,0.00,12,org.tom.weather,2013-10-20 11:32:00,
2013-10-20 07:37:00,51.3,45.7,29.74,West,260,2.0,-999.0,81,0.00,,,0.00,14,org.tom.weather,2013-10-20 11:37:00,
2013-10-20 07:42:00,51.3,45.7,29.74,ENE,61,3.0,-999.0,81,0.00,,,0.00,16,org.tom.weather,2013-10-20 11:42:00,
2013-10-20 07:47:00,51.2,45.2,29.74,WSW,250,0.0,-999.0,80,0.00,,,0.00,18,org.tom.weather,2013-10-20 11:47:00,
2013-10-20 07:52:00,51.1,44.8,29.74,NW,314,2.0,-999.0,79,0.00,,,0.00,19,org.tom.weather,2013-10-20 11:52:00,
2013-10-20 07:57:00,51.2,44.2,29.75,SW,232,0.0,-999.0,77,0.00,,,0.00,19,org.tom.weather,2013-10-20 11:57:00,
2013-10-20 08:02:00,51.3,44.0,29.75,WSW,255,0.0,-999.0,76,0.00,,,0.00,21,org.tom.weather,2013-10-20 12:02:00,
2013-10-20 08:07:00,51.4,44.1,29.75,WNW,287,1.0,-999.0,76,0.00,,,0.00,23,org.tom.weather,2013-10-20 12:07:00,
2013-10-20 08:12:00,51.6,43.6,29.76,West,281,0.0,-999.0,74,0.00,,,0.00,23,org.tom.weather,2013-10-20 12:12:00,
2013-10-20 08:17:00,51.7,43.3,29.76,NNW,329,3.0,-999.0,73,0.00,,,0.00,25,org.tom.weather,2013-10-20 12:17:00,
2013-10-20 08:22:00,51.8,43.4,29.76,West,265,3.0,-999.0,73,0.00,,,0.00,26,org.tom.weather,2013-10-20 12:22:00,
2013-10-20 08:27:00,51.8,43.4,29.76,North,350,0.0,-999.0,73,0.00,,,0.00,28,org.tom.weather,2013-10-20 12:27:00,
2013-10-20 08:32:00,52.0,43.2,29.76,NE,40,0.0,-999.0,72,0.00,,,0.00,28,org.tom.weather,2013-10-20 12:32:00,
2013-10-20 08:37:00,52.1,43.0,29.77,SW,236,2.0,-999.0,71,0.00,,,0.00,30,org.tom.weather,2013-10-20 12:37:00,
2013-10-20 08:42:00,52.3,43.2,29.77,WNW,298,0.0,-999.0,71,0.00,,,0.00,30,org.tom.weather,2013-10-20 12:42:00,
2013-10-20 08:47:00,52.4,43.3,29.77,ENE,76,2.0,-999.0,71,0.00,,,0.00,32,org.tom.weather,2013-10-20 12:47:00,
2013-10-20 08:52:00,52.4,42.9,29.77,NW,315,1.0,-999.0,70,0.00,,,0.00,32,org.tom.weather,2013-10-20 12:52:00,
2013-10-20 08:57:00,52.7,42.8,29.77,NW,311,3.0,-999.0,69,0.00,,,0.00,33,org.tom.weather,2013-10-20 12:57:00,
2013-10-20 09:02:00,52.8,42.5,29.77,NW,311,1.0,-999.0,68,0.00,,,0.00,35,org.tom.weather,2013-10-20 13:02:00,
2013-10-20 09:07:00,53.0,42.3,29.78,South,188,5.0,-999.0,67,0.00,,,0.00,35,org.tom.weather,2013-10-20 13:07:00,
2013-10-20 09:12:00,53.1,42.4,29.78,WNW,303,3.0,-999.0,67,0.00,,,0.00,37,org.tom.weather,2013-10-20 13:12:00,
2013-10-20 09:17:00,53.3,42.6,29.78,WNW,296,1.0,-999.0,67,0.00,,,0.00,70,org.tom.weather,2013-10-20 13:17:00,
2013-10-20 09:22:00,53.4,42.3,29.78,SW,219,4.0,-999.0,66,0.00,,,0.00,40,org.tom.weather,2013-10-20 13:22:00,
2013-10-20 09:27:00,53.6,42.5,29.78,WNW,300,5.0,-999.0,66,0.00,,,0.00,40,org.tom.weather,2013-10-20 13:27:00,
2013-10-20 09:32:00,53.8,41.9,29.78,West,263,3.0,-999.0,64,0.00,,,0.00,40,org.tom.weather,2013-10-20 13:32:00,
2013-10-20 09:37:00,53.9,42.0,29.78,WNW,290,2.0,-999.0,64,0.00,,,0.00,40,org.tom.weather,2013-10-20 13:37:00,
2013-10-20 09:43:00,54.1,42.2,29.79,NNE,17,2.0,-999.0,64,0.00,,,0.00,42,org.tom.weather,2013-10-20 13:43:00,
2013-10-20 09:48:00,54.1,42.2,29.79,ESE,118,0.0,-999.0,64,0.00,,,0.00,62,org.tom.weather,2013-10-20 13:48:00,
2013-10-20 09:53:00,54.4,42.1,29.79,ENE,61,0.0,-999.0,63,0.00,,,0.00,109,org.tom.weather,2013-10-20 13:53:00,
2013-10-20 09:58:00,54.7,42.3,29.79,WNW,291,4.0,-999.0,63,0.00,,,0.00,67,org.tom.weather,2013-10-20 13:58:00,
2013-10-20 10:03:00,55.0,42.2,29.79,West,273,0.0,-999.0,62,0.00,,,0.00,111,org.tom.weather,2013-10-20 14:03:00,
2013-10-20 10:08:00,55.3,42.5,29.79,WSW,254,0.0,-999.0,62,0.00,,,0.00,46,org.tom.weather,2013-10-20 14:08:00,
2013-10-20 10:13:00,55.5,41.4,29.79,WSW,255,5.0,-999.0,59,0.00,,,0.00,49,org.tom.weather,2013-10-20 14:13:00,
2013-10-20 10:18:00,55.5,41.8,29.79,West,267,3.0,-999.0,60,0.00,,,0.00,86,org.tom.weather,2013-10-20 14:18:00,
2013-10-20 10:23:00,55.7,41.6,29.79,NNW,348,1.0,-999.0,59,0.00,,,0.00,260,org.tom.weather,2013-10-20 14:23:00,
2013-10-20 10:28:00,56.0,41.4,29.80,SW,226,5.0,-999.0,58,0.00,,,0.00,294,org.tom.weather,2013-10-20 14:28:00,
2013-10-20 10:33:00,56.3,41.7,29.79,SSW,209,0.0,-999.0,58,0.00,,,0.00,555,org.tom.weather,2013-10-20 14:33:00,
2013-10-20 10:38:00,56.7,41.6,29.79,ENE,65,2.0,-999.0,57,0.00,,,0.00,563,org.tom.weather,2013-10-20 14:38:00,
2013-10-20 10:43:00,56.8,41.7,29.79,NNW,328,2.0,-999.0,57,0.00,,,0.00,568,org.tom.weather,2013-10-20 14:43:00,
2013-10-20 10:48:00,56.8,41.7,29.79,WSW,253,3.0,-999.0,57,0.00,,,0.00,575,org.tom.weather,2013-10-20 14:48:00,
2013-10-20 10:53:00,56.9,40.9,29.79,NNW,348,3.0,-999.0,55,0.00,,,0.00,585,org.tom.weather,2013-10-20 14:53:00,
2013-10-20 10:58:00,57.1,41.1,29.79,SW,227,0.0,-999.0,55,0.00,,,0.00,489,org.tom.weather,2013-10-20 14:58:00,
2013-10-20 11:03:00,57.5,41.4,29.80,NW,315,2.0,-999.0,55,0.00,,,0.00,487,org.tom.weather,2013-10-20 15:03:00,
2013-10-20 11:08:00,57.7,41.2,29.80,NNW,348,1.0,-999.0,54,0.00,,,0.00,487,org.tom.weather,2013-10-20 15:08:00,
2013-10-20 11:13:00,57.8,40.8,29.79,NE,45,1.0,-999.0,53,0.00,,,0.00,605,org.tom.weather,2013-10-20 15:13:00,
2013-10-20 11:18:00,58.1,41.0,29.80,NE,46,3.0,-999.0,53,0.00,,,0.00,612,org.tom.weather,2013-10-20 15:18:00,
2013-10-20 11:23:00,58.4,40.8,29.80,WNW,286,2.0,-999.0,52,0.00,,,0.00,615,org.tom.weather,2013-10-20 15:23:00,
2013-10-20 11:28:00,58.8,41.2,29.80,NW,326,1.0,-999.0,52,0.00,,,0.00,619,org.tom.weather,2013-10-20 15:28:00,
2013-10-20 11:33:00,58.8,41.2,29.80,SSW,200,1.0,-999.0,52,0.00,,,0.00,626,org.tom.weather,2013-10-20 15:33:00,
2013-10-20 11:38:00,59.1,41.5,29.80,WSW,245,1.0,-999.0,52,0.00,,,0.00,628,org.tom.weather,2013-10-20 15:38:00,
2013-10-20 11:43:00,59.3,41.2,29.80,ESE,119,2.0,-999.0,51,0.00,,,0.01,633,org.tom.weather,2013-10-20 15:43:00,
2013-10-20 11:48:00,59.1,41.0,29.81,SW,223,0.0,-999.0,51,0.00,,,0.01,633,org.tom.weather,2013-10-20 15:48:00,
2013-10-20 11:53:00,59.2,40.0,29.81,WNW,302,4.0,-999.0,49,0.00,,,0.01,633,org.tom.weather,2013-10-20 15:53:00,
2013-10-20 11:58:00,59.3,40.1,29.80,SW,231,3.0,-999.0,49,0.00,,,0.01,638,org.tom.weather,2013-10-20 15:58:00,
2013-10-20 12:03:00,59.8,40.1,29.81,NW,307,3.0,-999.0,48,0.00,,,0.01,638,org.tom.weather,2013-10-20 16:03:00,
2013-10-20 12:08:00,59.7,40.0,29.81,WNW,301,10.0,-999.0,48,0.00,,,0.01,642,org.tom.weather,2013-10-20 16:08:00,
2013-10-20 12:13:00,60.1,41.4,29.80,NE,44,0.0,-999.0,50,0.00,,,0.01,640,org.tom.weather,2013-10-20 16:13:00,
2013-10-20 12:19:00,60.6,40.8,29.80,SSW,208,4.0,-999.0,48,0.00,,,0.01,643,org.tom.weather,2013-10-20 16:19:00,
2013-10-20 12:24:00,60.5,39.6,29.80,WSW,249,2.0,-999.0,46,0.00,,,0.01,643,org.tom.weather,2013-10-20 16:24:00,
2013-10-20 12:29:00,60.6,40.2,29.80,North,355,4.0,-999.0,47,0.00,,,0.01,640,org.tom.weather,2013-10-20 16:29:00,
2013-10-20 12:34:00,60.7,40.3,29.80,WNW,299,3.0,-999.0,47,0.00,,,0.01,638,org.tom.weather,2013-10-20 16:34:00,
2013-10-20 12:36:00,60.9,41.6,29.81,NNE,14,0.0,-999.0,49,0.00,,,0.01,638,org.tom.weather,2013-10-20 16:36:00,
2013-10-20 12:41:00,60.9,40.0,29.80,WSW,245,4.0,-999.0,46,0.00,,,0.01,636,org.tom.weather,2013-10-20 16:41:00,
2013-10-20 12:46:00,60.5,40.2,29.80,NW,325,2.0,-999.0,47,0.00,,,0.01,635,org.tom.weather,2013-10-20 16:46:00,
2013-10-20 12:51:00,61.1,39.6,29.80,NNE,33,0.0,-999.0,45,0.00,,,0.01,633,org.tom.weather,2013-10-20 16:51:00,
2013-10-20 12:56:00,61.2,40.2,29.80,SSW,210,2.0,-999.0,46,0.00,,,0.01,626,org.tom.weather,2013-10-20 16:56:00,
2013-10-20 13:01:00,61.4,39.9,29.80,SW,214,4.0,-999.0,45,0.00,,,0.01,624,org.tom.weather,2013-10-20 17:01:00,
2013-10-20 13:06:00,62.1,39.9,29.80,SW,236,2.0,-999.0,44,0.00,,,0.01,621,org.tom.weather,2013-10-20 17:06:00,
2013-10-20 13:12:00,62.5,39.7,29.80,ESE,102,3.0,-999.0,43,0.00,,,0.01,617,org.tom.weather,2013-10-20 17:12:00,
2013-10-20 13:17:00,61.7,38.4,29.80,SW,233,10.0,-999.0,42,0.00,,,0.01,610,org.tom.weather,2013-10-20 17:17:00,
2013-10-20 13:22:00,61.6,39.5,29.80,WNW,287,2.0,-999.0,44,0.00,,,0.01,606,org.tom.weather,2013-10-20 17:22:00,
2013-10-20 13:27:00,62.3,38.9,29.81,SW,222,5.0,-999.0,42,0.00,,,0.01,599,org.tom.weather,2013-10-20 17:27:00,
2013-10-20 13:32:00,62.0,39.2,29.81,SW,234,1.0,-999.0,43,0.00,,,0.01,598,org.tom.weather,2013-10-20 17:32:00,
2013-10-20 13:37:00,62.5,39.7,29.80,SW,232,3.0,-999.0,43,0.00,,,0.01,592,org.tom.weather,2013-10-20 17:37:00,
2013-10-20 13:42:00,62.2,38.2,29.80,SW,223,2.0,-999.0,41,0.00,,,0.01,584,org.tom.weather,2013-10-20 17:42:00,
2013-10-20 13:47:00,62.1,38.7,29.80,WNW,294,5.0,-999.0,42,0.00,,,0.01,577,org.tom.weather,2013-10-20 17:47:00,
2013-10-20 13:53:00,62.5,38.5,29.80,SSW,204,4.0,-999.0,41,0.00,,,0.01,566,org.tom.weather,2013-10-20 17:53:00,
2013-10-20 13:58:00,62.5,39.1,29.80,SSW,204,5.0,-999.0,42,0.00,,,0.01,559,org.tom.weather,2013-10-20 17:58:00,
2013-10-20 14:03:00,62.6,39.2,29.80,NE,53,3.0,-999.0,42,0.00,,,0.01,554,org.tom.weather,2013-10-20 18:03:00,
2013-10-20 14:08:00,62.6,39.2,29.80,NNW,345,2.0,-999.0,42,0.00,,,0.01,540,org.tom.weather,2013-10-20 18:08:00,
2013-10-20 14:13:00,62.8,39.4,29.81,SW,218,2.0,-999.0,42,0.00,,,0.01,533,org.tom.weather,2013-10-20 18:13:00,
2013-10-20 14:18:00,63.1,37.7,29.81,NNW,334,3.0,-999.0,39,0.00,,,0.01,529,org.tom.weather,2013-10-20 18:18:00,
2013-10-20 14:23:00,62.8,36.8,29.81,WSW,245,6.0,-999.0,38,0.00,,,0.01,515,org.tom.weather,2013-10-20 18:23:00,
2013-10-20 14:28:00,62.9,36.9,29.81,ENE,69,2.0,-999.0,38,0.00,,,0.01,504,org.tom.weather,2013-10-20 18:28:00,
2013-10-20 14:33:00,62.9,38.2,29.81,West,278,1.0,-999.0,40,0.00,,,0.01,494,org.tom.weather,2013-10-20 18:33:00,
2013-10-20 14:38:00,62.7,37.4,29.81,NNE,29,4.0,-999.0,39,0.00,,,0.01,487,org.tom.weather,2013-10-20 18:38:00,
2013-10-20 14:43:00,62.8,37.5,29.81,SW,223,4.0,-999.0,39,0.00,,,0.01,476,org.tom.weather,2013-10-20 18:43:00,
2013-10-20 14:48:00,62.9,37.6,29.81,North,360,4.0,-999.0,39,0.00,,,0.01,455,org.tom.weather,2013-10-20 18:48:00,
2013-10-20 14:53:00,62.8,37.5,29.82,WSW,250,2.0,-999.0,39,0.00,,,0.01,452,org.tom.weather,2013-10-20 18:53:00,
2013-10-20 14:59:00,62.7,37.4,29.82,West,259,1.0,-999.0,39,0.00,,,0.01,436,org.tom.weather,2013-10-20 18:59:00,
2013-10-20 15:04:00,62.7,37.4,29.82,South,183,0.0,-999.0,39,0.00,,,0.01,425,org.tom.weather,2013-10-20 19:04:00,
2013-10-20 15:09:00,62.9,37.6,29.82,NNE,15,3.0,-999.0,39,0.00,,,0.01,410,org.tom.weather,2013-10-20 19:09:00,
2013-10-20 15:14:00,62.6,37.3,29.82,NE,46,2.0,-999.0,39,0.00,,,0.01,397,org.tom.weather,2013-10-20 19:14:00,
2013-10-20 15:19:00,62.6,36.6,29.82,WSW,257,3.0,-999.0,38,0.00,,,0.01,385,org.tom.weather,2013-10-20 19:19:00,
2013-10-20 15:24:00,62.8,37.5,29.82,North,360,4.0,-999.0,39,0.00,,,0.01,373,org.tom.weather,2013-10-20 19:24:00,
2013-10-20 15:29:00,62.5,36.5,29.83,WSW,257,17.0,-999.0,38,0.00,,,0.01,359,org.tom.weather,2013-10-20 19:29:00,
2013-10-20 15:34:00,62.5,37.2,29.83,NNW,328,3.0,-999.0,39,0.00,,,0.01,343,org.tom.weather,2013-10-20 19:34:00,
2013-10-20 15:39:00,62.5,37.8,29.83,South,182,3.0,-999.0,40,0.00,,,0.01,332,org.tom.weather,2013-10-20 19:39:00,
2013-10-20 15:44:00,62.5,37.2,29.83,ENE,68,1.0,-999.0,39,0.00,,,0.01,322,org.tom.weather,2013-10-20 19:44:00,
2013-10-20 15:49:00,62.3,37.0,29.84,NNW,338,4.0,-999.0,39,0.00,,,0.01,309,org.tom.weather,2013-10-20 19:49:00,
2013-10-20 15:54:00,61.9,36.7,29.84,NE,55,3.0,-999.0,39,0.00,,,0.01,290,org.tom.weather,2013-10-20 19:54:00,
2013-10-20 16:00:00,61.8,36.6,29.84,NW,319,1.0,-999.0,39,0.00,,,0.01,269,org.tom.weather,2013-10-20 20:00:00,
2013-10-20 16:05:00,61.8,35.9,29.85,NW,320,4.0,-999.0,38,0.00,,,0.01,253,org.tom.weather,2013-10-20 20:05:00,
2013-10-20 16:10:00,61.7,35.8,29.85,WSW,256,6.0,-999.0,38,0.00,,,0.01,241,org.tom.weather,2013-10-20 20:10:00,
2013-10-20 16:15:00,61.5,35.7,29.85,West,281,1.0,-999.0,38,0.00,,,0.01,229,org.tom.weather,2013-10-20 20:15:00,
2013-10-20 16:20:00,61.1,35.3,29.85,West,260,2.0,-999.0,38,0.00,,,0.01,213,org.tom.weather,2013-10-20 20:20:00,
2013-10-20 16:25:00,61.2,36.0,29.85,WNW,294,1.0,-999.0,39,0.00,,,0.01,200,org.tom.weather,2013-10-20 20:25:00,
2013-10-20 16:30:00,61.1,35.3,29.85,NW,320,3.0,-999.0,38,0.00,,,0.01,185,org.tom.weather,2013-10-20 20:30:00,
2013-10-20 16:35:00,60.7,35.6,29.86,SSW,208,2.0,-999.0,39,0.00,,,0.01,165,org.tom.weather,2013-10-20 20:35:00,
2013-10-20 16:40:00,60.5,36.1,29.86,WNW,295,0.0,-999.0,40,0.00,,,0.01,151,org.tom.weather,2013-10-20 20:40:00,
2013-10-20 16:45:00,60.4,35.3,29.86,WSW,237,7.0,-999.0,39,0.00,,,0.01,139,org.tom.weather,2013-10-20 20:45:00,
2013-10-20 16:50:00,59.9,35.5,29.86,WNW,299,6.0,-999.0,40,0.00,,,0.01,128,org.tom.weather,2013-10-20 20:50:00,
2013-10-20 16:55:00,59.6,35.9,29.86,NW,321,3.0,-999.0,41,0.00,,,0.01,86,org.tom.weather,2013-10-20 20:55:00,
2013-10-20 17:00:00,59.3,36.2,29.87,West,266,2.0,-999.0,42,0.00,,,0.01,37,org.tom.weather,2013-10-20 21:00:00,
2013-10-20 17:05:00,58.9,36.4,29.87,NE,48,5.0,-999.0,43,0.00,,,0.01,30,org.tom.weather,2013-10-20 21:05:00,
2013-10-20 17:10:00,58.7,36.3,29.87,South,182,0.0,-999.0,43,0.00,,,0.01,26,org.tom.weather,2013-10-20 21:10:00,
2013-10-20 17:15:00,58.6,36.7,29.88,SSW,202,1.0,-999.0,44,0.00,,,0.01,26,org.tom.weather,2013-10-20 21:15:00,
2013-10-20 17:20:00,58.4,36.6,29.88,North,360,2.0,-999.0,44,0.00,,,0.01,21,org.tom.weather,2013-10-20 21:20:00,
2013-10-20 17:25:00,58.1,36.9,29.88,NNE,23,4.0,-999.0,45,0.00,,,0.01,18,org.tom.weather,2013-10-20 21:25:00,
2013-10-20 17:30:00,57.8,36.6,29.88,NE,46,0.0,-999.0,45,0.00,,,0.01,14,org.tom.weather,2013-10-20 21:30:00,
2013-10-20 17:35:00,57.6,37.0,29.88,ESE,117,0.0,-999.0,46,0.00,,,0.01,11,org.tom.weather,2013-10-20 21:35:00,
2013-10-20 17:40:00,57.2,37.1,29.89,North,355,0.0,-999.0,47,0.00,,,0.01,9,org.tom.weather,2013-10-20 21:40:00,
2013-10-20 17:45:00,57.0,37.0,29.89,SW,230,0.0,-999.0,47,0.00,,,0.01,7,org.tom.weather,2013-10-20 21:45:00,
2013-10-20 17:51:00,56.8,36.8,29.89,NNW,327,3.0,-999.0,47,0.00,,,0.01,5,org.tom.weather,2013-10-20 21:51:00,
2013-10-20 17:56:00,56.6,37.7,29.89,NW,325,0.0,-999.0,49,0.00,,,0.01,0,org.tom.weather,2013-10-20 21:56:00,
2013-10-20 18:01:00,56.4,37.5,29.90,NW,325,0.0,-999.0,49,0.00,,,0.01,0,org.tom.weather,2013-10-20 22:01:00,
2013-10-20 18:06:00,56.0,37.1,29.90,NW,325,0.0,-999.0,49,0.00,,,0.01,0,org.tom.weather,2013-10-20 22:06:00,
2013-10-20 18:11:00,55.8,37.4,29.90,NW,325,0.0,-999.0,50,0.00,,,0.01,0,org.tom.weather,2013-10-20 22:11:00,
2013-10-20 18:16:00,55.4,37.1,29.90,NW,325,0.0,-999.0,50,0.00,,,0.01,0,org.tom.weather,2013-10-20 22:16:00,
2013-10-20 18:21:00,55.0,37.2,29.91,NW,325,0.0,-999.0,51,0.00,,,0.01,0,org.tom.weather,2013-10-20 22:21:00,
2013-10-20 18:26:00,54.7,36.9,29.91,NW,325,0.0,-999.0,51,0.00,,,0.01,0,org.tom.weather,2013-10-20 22:26:00,
2013-10-20 18:31:00,54.3,38.0,29.91,NW,325,0.0,-999.0,54,0.00,,,0.01,0,org.tom.weather,2013-10-20 22:31:00,
2013-10-20 18:36:00,53.7,37.4,29.91,NW,325,0.0,-999.0,54,0.00,,,0.01,0,org.tom.weather,2013-10-20 22:36:00,
2013-10-20 18:41:00,53.1,37.4,29.92,NW,325,0.0,-999.0,55,0.00,,,0.01,0,org.tom.weather,2013-10-20 22:41:00,
2013-10-20 18:46:00,52.5,37.3,29.92,NW,325,0.0,-999.0,56,0.00,,,0.01,0,org.tom.weather,2013-10-20 22:46:00,
2013-10-20 18:51:00,52.1,37.3,29.92,NW,325,0.0,-999.0,57,0.00,,,0.01,0,org.tom.weather,2013-10-20 22:51:00,
2013-10-20 18:56:00,51.8,37.0,29.92,NW,325,0.0,-999.0,57,0.00,,,0.01,0,org.tom.weather,2013-10-20 22:56:00,
2013-10-20 19:01:00,51.4,38.0,29.93,NW,325,0.0,-999.0,60,0.00,,,0.01,0,org.tom.weather,2013-10-20 23:01:00,
2013-10-20 19:06:00,51.1,38.9,29.92,NW,325,0.0,-999.0,63,0.00,,,0.01,0,org.tom.weather,2013-10-20 23:06:00,
2013-10-20 19:11:00,50.8,39.1,29.93,NW,325,0.0,-999.0,64,0.00,,,0.01,0,org.tom.weather,2013-10-20 23:11:00,
2013-10-20 19:16:00,50.3,39.0,29.93,NW,325,0.0,-999.0,65,0.00,,,0.01,0,org.tom.weather,2013-10-20 23:16:00,
2013-10-20 19:21:00,49.9,38.6,29.93,NW,325,0.0,-999.0,65,0.00,,,0.01,0,org.tom.weather,2013-10-20 23:21:00,
2013-10-20 19:26:00,49.4,38.5,29.93,NW,325,0.0,-999.0,66,0.00,,,0.01,0,org.tom.weather,2013-10-20 23:26:00,
2013-10-20 19:31:00,49.1,38.6,29.93,NW,325,0.0,-999.0,67,0.00,,,0.01,0,org.tom.weather,2013-10-20 23:31:00,
2013-10-20 19:36:00,48.7,37.8,29.93,NW,325,0.0,-999.0,66,0.00,,,0.01,0,org.tom.weather,2013-10-20 23:36:00,
2013-10-20 19:41:00,48.3,37.5,29.93,NW,325,0.0,-999.0,66,0.00,,,0.01,0,org.tom.weather,2013-10-20 23:41:00,
2013-10-20 19:46:00,48.0,37.6,29.94,NW,325,0.0,-999.0,67,0.00,,,0.01,0,org.tom.weather,2013-10-20 23:46:00,
2013-10-20 19:51:00,47.7,37.7,29.94,NW,325,0.0,-999.0,68,0.00,,,0.01,0,org.tom.weather,2013-10-20 23:51:00,
2013-10-20 19:56:00,47.5,37.5,29.94,NW,325,0.0,-999.0,68,0.00,,,0.01,0,org.tom.weather,2013-10-20 23:56:00,
2013-10-20 20:01:00,47.1,37.5,29.94,NW,325,0.0,-999.0,69,0.00,,,0.01,0,org.tom.weather,2013-10-21 00:01:00,
2013-10-20 20:06:00,46.8,37.5,29.94,NW,325,0.0,-999.0,70,0.00,,,0.01,0,org.tom.weather,2013-10-21 00:06:00,
2013-10-20 20:12:00,46.4,37.5,29.95,NW,325,0.0,-999.0,71,0.00,,,0.01,0,org.tom.weather,2013-10-21 00:12:00,
2013-10-20 20:17:00,46.0,37.8,29.95,NW,325,0.0,-999.0,73,0.00,,,0.01,0,org.tom.weather,2013-10-21 00:17:00,
2013-10-20 20:22:00,45.7,37.5,29.95,NW,325,0.0,-999.0,73,0.00,,,0.01,0,org.tom.weather,2013-10-21 00:22:00,
2013-10-20 20:27:00,45.4,37.3,29.95,NW,325,0.0,-999.0,73,0.00,,,0.01,0,org.tom.weather,2013-10-21 00:27:00,
2013-10-20 20:32:00,45.0,37.2,29.95,NW,325,0.0,-999.0,74,0.00,,,0.01,0,org.tom.weather,2013-10-21 00:32:00,
2013-10-20 20:37:00,44.6,37.5,29.95,NW,325,0.0,-999.0,76,0.00,,,0.01,0,org.tom.weather,2013-10-21 00:37:00,
2013-10-20 20:42:00,44.3,37.2,29.95,NW,325,0.0,-999.0,76,0.00,,,0.01,0,org.tom.weather,2013-10-21 00:42:00,
2013-10-20 20:47:00,44.1,37.4,29.96,NW,325,0.0,-999.0,77,0.00,,,0.01,0,org.tom.weather,2013-10-21 00:47:00,
2013-10-20 20:52:00,43.8,37.4,29.96,NW,325,0.0,-999.0,78,0.00,,,0.01,0,org.tom.weather,2013-10-21 00:52:00,
2013-10-20 20:57:00,43.6,37.2,29.96,NW,325,0.0,-999.0,78,0.00,,,0.01,0,org.tom.weather,2013-10-21 00:57:00,
2013-10-20 21:02:00,43.4,37.3,29.97,NW,325,0.0,-999.0,79,0.00,,,0.01,0,org.tom.weather,2013-10-21 01:02:00,
2013-10-20 21:07:00,43.2,36.8,29.97,NW,325,0.0,-999.0,78,0.00,,,0.01,0,org.tom.weather,2013-10-21 01:07:00,
2013-10-20 21:12:00,42.9,36.8,29.97,NW,325,0.0,-999.0,79,0.00,,,0.01,0,org.tom.weather,2013-10-21 01:12:00,
2013-10-20 21:17:00,42.7,36.6,29.97,NW,325,0.0,-999.0,79,0.00,,,0.01,0,org.tom.weather,2013-10-21 01:17:00,
2013-10-20 21:22:00,42.5,36.8,29.97,NW,325,0.0,-999.0,80,0.00,,,0.01,0,org.tom.weather,2013-10-21 01:22:00,
2013-10-20 21:27:00,42.2,36.8,29.97,NW,325,0.0,-999.0,81,0.00,,,0.01,0,org.tom.weather,2013-10-21 01:27:00,
2013-10-20 21:32:00,42.1,36.7,29.97,NW,325,0.0,-999.0,81,0.00,,,0.01,0,org.tom.weather,2013-10-21 01:32:00,
2013-10-20 21:37:00,41.8,36.7,29.98,NW,325,0.0,-999.0,82,0.00,,,0.01,0,org.tom.weather,2013-10-21 01:37:00,
2013-10-20 21:42:00,41.7,36.6,29.98,NW,325,0.0,-999.0,82,0.00,,,0.01,0,org.tom.weather,2013-10-21 01:42:00,
2013-10-20 21:47:00,41.5,36.7,29.98,NW,325,0.0,-999.0,83,0.00,,,0.01,0,org.tom.weather,2013-10-21 01:47:00,
2013-10-20 21:52:00,41.4,36.6,29.98,NW,325,0.0,-999.0,83,0.00,,,0.01,0,org.tom.weather,2013-10-21 01:52:00,
2013-10-20 21:57:00,41.3,36.5,29.98,NW,325,0.0,-999.0,83,0.00,,,0.01,0,org.tom.weather,2013-10-21 01:57:00,
2013-10-20 22:02:00,41.2,36.4,29.99,NW,325,0.0,-999.0,83,0.00,,,0.01,0,org.tom.weather,2013-10-21 02:02:00,
2013-10-20 22:07:00,41.1,36.6,29.99,NW,325,0.0,-999.0,84,0.00,,,0.01,0,org.tom.weather,2013-10-21 02:07:00,
2013-10-20 22:12:00,41.0,36.5,29.99,NW,325,0.0,-999.0,84,0.00,,,0.01,0,org.tom.weather,2013-10-21 02:12:00,
2013-10-20 22:17:00,41.0,36.5,29.99,NW,325,0.0,-999.0,84,0.00,,,0.01,0,org.tom.weather,2013-10-21 02:17:00,
2013-10-20 22:22:00,41.1,36.6,29.99,NW,325,0.0,-999.0,84,0.00,,,0.01,0,org.tom.weather,2013-10-21 02:22:00,
2013-10-20 22:27:00,41.1,36.6,29.99,NW,325,0.0,-999.0,84,0.00,,,0.01,0,org.tom.weather,2013-10-21 02:27:00,
2013-10-20 22:32:00,41.1,36.3,29.99,NW,325,0.0,-999.0,83,0.00,,,0.01,0,org.tom.weather,2013-10-21 02:32:00,
2013-10-20 22:37:00,41.1,36.6,29.99,NW,325,0.0,-999.0,84,0.00,,,0.01,0,org.tom.weather,2013-10-21 02:37:00,
2013-10-20 22:42:00,41.2,37.0,29.99,NW,325,0.0,-999.0,85,0.00,,,0.01,0,org.tom.weather,2013-10-21 02:42:00,
2013-10-20 22:47:00,41.1,36.9,29.99,NW,325,0.0,-999.0,85,0.00,,,0.01,0,org.tom.weather,2013-10-21 02:47:00,
2013-10-20 22:52:00,41.0,36.5,29.99,NW,325,0.0,-999.0,84,0.00,,,0.01,0,org.tom.weather,2013-10-21 02:52:00,
2013-10-20 22:57:00,40.9,36.7,29.99,NW,325,0.0,-999.0,85,0.00,,,0.01,0,org.tom.weather,2013-10-21 02:57:00,
2013-10-20 23:02:00,40.8,36.6,29.99,NW,325,0.0,-999.0,85,0.00,,,0.01,0,org.tom.weather,2013-10-21 03:02:00,
2013-10-20 23:07:00,40.7,36.5,30.00,NW,325,0.0,-999.0,85,0.00,,,0.01,0,org.tom.weather,2013-10-21 03:07:00,
2013-10-20 23:12:00,40.6,36.1,30.00,NW,325,0.0,-999.0,84,0.00,,,0.01,0,org.tom.weather,2013-10-21 03:12:00,
2013-10-20 23:17:00,40.5,36.0,30.00,NW,325,0.0,-999.0,84,0.00,,,0.01,0,org.tom.weather,2013-10-21 03:17:00,
2013-10-20 23:22:00,40.4,35.9,30.00,NW,325,0.0,-999.0,84,0.00,,,0.01,0,org.tom.weather,2013-10-21 03:22:00,
2013-10-20 23:27:00,40.3,36.1,30.00,NW,325,0.0,-999.0,85,0.00,,,0.01,0,org.tom.weather,2013-10-21 03:27:00,
2013-10-20 23:32:00,40.2,36.1,30.00,NW,325,0.0,-999.0,85,0.00,,,0.01,0,org.tom.weather,2013-10-21 03:32:00,
2013-10-20 23:37:00,40.1,36.0,30.00,NW,325,0.0,-999.0,85,0.00,,,0.01,0,org.tom.weather,2013-10-21 03:37:00,
2013-10-20 23:42:00,40.1,36.0,30.00,NW,325,0.0,-999.0,85,0.00,,,0.01,0,org.tom.weather,2013-10-21 03:42:00,
2013-10-20 23:47:00,40.0,35.9,30.00,NW,325,0.0,-999.0,85,0.00,,,0.01,0,org.tom.weather,2013-10-21 03:47:00,
2013-10-20 23:52:00,40.0,36.2,30.00,NW,325,0.0,-999.0,86,0.00,,,0.01,0,org.tom.weather,2013-10-21 03:52:00,
2013-10-20 23:57:00,40.1,36.2,30.00,NW,325,0.0,-999.0,86,0.00,,,0.01,0,org.tom.weather,2013-10-21 03:57:00,